Das europäische

Eingangstor zur

Zentralschweiz

Aviatik Kompetenzen

mit langer Tradition

Luftfahrt im Land

der Flugzeugbauer

Flugbasis für Arbeits- und

Geschäftsflüge mit hoher Priorität

METAR

LSZC 070750Z AUTO 22003KT 190V260 9999 OVC019 14/11 Q1027

TAF

TAF LSZC 070525Z 0706/0715 VRB02KT 9999 BKN020 BECMG 0709/0712 CAVOK

SR / SS

METEO

NOTAM

OurAirports has no current s for Buochs Airport.

DABS

Heute
Morgen

FLÜGE

Anmelden
Timetable

Richtung West (Pilatus)


Richtung West (Pilatus)



Richtung Ost (Brunnen)


Richtung Ost (Brunnen)


Richtung Nord (Luzern)


Richtung Süd (Engelberg)


Privacy Settings
We use cookies to enhance your experience while using our website. If you are using our Services via a browser you can restrict, block or remove cookies through your web browser settings. We also use content and scripts from third parties that may use tracking technologies. You can selectively provide your consent below to allow such third party embeds. For complete information about the cookies we use, data we collect and how we process them, please check our Privacy Policy
Youtube
Consent to display content from Youtube
Vimeo
Consent to display content from Vimeo
Google Maps
Consent to display content from Google